Вернуться в каталог

SL-8 DEB

АктивенLEO
NORAD 1617·DEBRIS·🇷🇺 Russia

Запущен Sep 18, 1965 с Baikonur Cosmodrome

Loading…

Ближайшие Пролёты (ближайшие 24 часа)

TLE

СвежийSource: Space-Track

Эпоха: Sep 14, 2026, 06:18 UTC

1 01617U 65073J   26257.26285661  .00000300  00000-0  28685-2 0  9998
2 01617  56.1268 191.7633 0229051  61.2096 101.9442 12.34810185741442

Отслеживайте SL-8 DEB в реальном времени с AllMySat

Download on the App Store